Time[GMT],salinity[psu](20m),sigma_t[kg/m^3](20m),conductivity[msiemens/cm](20m),temperature[C](20m)
2008-04-22 20:00,31.429,24.912,29.834,4.35
2008-04-22 21:00,31.339,24.832,29.830,4.44
2008-04-22 22:00,31.485,24.967,29.796,4.25
2008-04-22 23:00,31.453,24.935,29.821,4.31
2008-04-23 00:00,31.496,24.976,29.805,4.25
2008-04-23 01:00,31.454,24.939,29.801,4.29
2008-04-23 02:00,31.406,24.894,29.817,4.36
2008-04-23 03:00,31.272,24.770,29.842,4.53
2008-04-23 04:00,31.065,24.569,29.954,4.89
2008-04-23 05:00,31.360,24.844,29.888,4.49
2008-04-23 06:00,31.426,24.901,29.909,4.45
2008-04-23 07:00,31.442,24.914,29.915,4.44
2008-04-23 08:00,31.457,24.930,29.898,4.40
2008-04-23 09:00,31.358,24.842,29.882,4.49
2008-04-23 10:00,31.549,25.024,29.796,4.18
2008-04-23 11:00,31.383,24.869,29.847,4.42
2008-04-23 12:00,31.533,25.010,29.795,4.20
2008-04-23 13:00,31.423,24.914,29.777,4.29
2008-04-23 14:00,31.486,24.970,29.779,4.23
2008-04-23 15:00,31.236,24.731,29.894,4.63
2008-04-23 16:00,31.255,24.741,29.956,4.69
2008-04-23 17:00,31.291,24.768,29.996,4.70
2008-04-23 18:00,31.371,24.842,29.980,4.59
2008-04-23 19:00,31.436,24.904,29.958,4.50
2008-04-23 20:00,31.416,24.888,29.938,4.49
2008-04-23 21:00,31.488,24.955,29.923,4.40
2008-04-23 22:00,31.448,24.918,29.929,4.45
2008-04-23 23:00,31.361,24.838,29.938,4.55
2008-04-24 00:00,31.458,24.931,29.890,4.39
2008-04-24 01:00,31.351,24.827,29.957,4.59
2008-04-24 02:00,31.476,24.945,29.914,4.40
2008-04-24 03:00,31.430,24.905,29.905,4.44
2008-04-24 04:00,31.217,24.681,30.151,4.97
2008-04-24 05:00,31.231,24.687,30.205,5.01
2008-04-24 06:00,31.260,24.716,30.186,4.96
2008-04-24 07:00,31.346,24.801,30.125,4.80
2008-04-24 08:00,31.370,24.820,30.145,4.80
2008-04-24 09:00,31.360,24.814,30.119,4.77
2008-04-24 10:00,31.340,24.804,30.066,4.73
2008-04-24 11:00,31.345,24.795,30.165,4.85
2008-04-24 12:00,31.445,24.910,29.973,4.51
2008-04-24 13:00,31.369,24.823,30.119,4.76
2008-04-24 14:00,31.369,24.829,30.067,4.70
2008-04-24 15:00,31.414,24.887,29.927,4.48
2008-04-24 16:00,31.282,24.759,29.998,4.71
2008-04-24 17:00,31.203,24.655,30.259,5.11
2008-04-24 18:00,31.103,24.556,30.315,5.29
2008-04-24 19:00,31.273,24.720,30.243,5.02
2008-04-24 20:00,31.344,24.790,30.192,4.88
2008-04-24 21:00,31.339,24.780,30.241,4.94
2008-04-24 22:00,31.381,24.829,30.160,4.80
2008-04-24 23:00,31.445,24.901,30.045,4.59
2008-04-25 00:00,31.386,24.835,30.147,4.78
2008-04-25 01:00,31.412,24.858,30.149,4.76
2008-04-25 02:00,31.383,24.831,30.155,4.79
2008-04-25 03:00,31.195,24.667,30.106,4.93
2008-04-25 04:00,31.256,24.651,30.642,5.52
2008-04-25 05:00,31.217,24.615,30.649,5.57
2008-04-25 06:00,31.117,24.510,30.738,5.79
2008-04-25 07:00,31.222,24.643,30.474,5.35
2008-04-25 08:00,31.323,24.763,30.257,4.98
2008-04-25 09:00,31.357,24.795,30.255,4.94
2008-04-25 10:00,31.345,24.776,30.308,5.02
2008-04-25 11:00,31.399,24.829,30.286,4.93
2008-04-25 12:00,31.458,24.892,30.204,4.77
2008-04-25 13:00,31.519,24.959,30.114,4.60
2008-04-25 14:00,31.443,24.880,30.193,4.78
2008-04-25 15:00,31.483,24.931,30.072,4.59
2008-04-25 16:00,31.404,24.861,30.066,4.66
2008-04-25 17:00,31.191,24.634,30.333,5.21
2008-04-25 18:00,31.342,24.782,30.246,4.95
2008-04-25 19:00,31.352,24.785,30.289,4.99
2008-04-25 20:00,31.341,24.782,30.240,4.94
2008-04-25 21:00,31.393,24.848,30.093,4.71
2008-04-25 22:00,31.431,24.867,30.211,4.81
2008-04-25 23:00,31.467,24.909,30.140,4.69
2008-04-26 00:00,31.508,24.955,30.060,4.55
2008-04-26 01:00,31.455,24.895,30.160,4.72
2008-04-26 02:00,31.506,24.950,30.089,4.58
2008-04-26 03:00,31.400,24.854,30.094,4.70
2008-04-26 04:00,31.426,24.874,30.124,4.71
2008-04-26 05:00,31.057,24.513,30.324,5.35
2008-04-26 06:00,31.258,24.702,30.276,5.07
2008-04-26 07:00,31.284,24.726,30.274,5.04
2008-04-26 08:00,31.247,24.684,30.338,5.16
2008-04-26 09:00,31.417,24.852,30.234,4.85
2008-04-26 10:00,31.434,24.870,30.210,4.81
2008-04-26 11:00,31.536,24.961,30.221,4.71
2008-04-26 12:00,31.477,24.910,30.202,4.75
2008-04-26 13:00,31.442,24.882,30.173,4.75
2008-04-26 14:00,31.529,24.964,30.138,4.62
2008-04-26 15:00,31.552,24.985,30.146,4.60
2008-04-26 16:00,31.491,24.925,30.184,4.71
2008-04-26 17:00,31.484,24.913,30.226,4.77
2008-04-26 18:00,31.307,24.769,30.100,4.81
2008-04-26 19:00,31.297,24.778,29.960,4.65
2008-04-26 20:00,31.385,24.814,30.305,4.97
2008-04-26 21:00,31.259,24.685,30.414,5.24
2008-04-26 22:00,31.368,24.792,30.348,5.04
2008-04-26 23:00,31.396,24.831,30.239,4.88
2008-04-27 00:00,31.412,24.847,30.237,4.86
2008-04-27 01:00,31.417,24.865,30.131,4.73
2008-04-27 02:00,31.461,24.913,30.059,4.59
2008-04-27 03:00,31.488,24.931,30.118,4.64
2008-04-27 04:00,31.407,24.854,30.149,4.76
2008-04-27 05:00,31.366,24.803,30.257,4.93
2008-04-27 06:00,31.379,24.827,30.158,4.80
2008-04-27 07:00,31.359,24.790,30.299,4.99
2008-04-27 08:00,31.461,24.878,30.333,4.93
2008-04-27 09:00,31.498,24.911,30.340,4.90
2008-04-27 10:00,31.534,24.946,30.325,4.84
2008-04-27 11:00,31.582,24.991,30.309,4.77
2008-04-27 12:00,31.512,24.934,30.260,4.78
2008-04-27 13:00,31.507,24.936,30.204,4.72
2008-04-27 14:00,31.518,24.941,30.243,4.76
2008-04-27 15:00,31.556,24.987,30.154,4.61
2008-04-27 16:00,31.537,24.960,30.237,4.73
2008-04-27 17:00,31.412,24.865,30.093,4.69
2008-04-27 18:00,31.439,24.875,30.205,4.80
2008-04-27 19:00,31.476,24.895,30.315,4.89
2008-04-27 20:00,31.403,24.827,30.323,4.98
2008-04-27 21:00,31.433,24.852,30.339,4.96
2008-04-27 22:00,31.456,24.876,30.319,4.91
2008-04-27 23:00,31.498,24.914,30.317,4.87
2008-04-28 00:00,31.515,24.928,30.325,4.86
2008-04-28 01:00,31.507,24.923,30.313,4.85
2008-04-28 02:00,31.572,24.986,30.275,4.74
2008-04-28 03:00,31.557,24.970,30.296,4.78
2008-04-28 04:00,31.578,24.990,30.288,4.75
2008-04-28 05:00,31.511,24.928,30.301,4.84
2008-04-28 06:00,31.489,24.919,30.216,4.76
2008-04-28 07:00,31.307,24.740,30.328,5.08
2008-04-28 08:00,31.348,24.789,30.234,4.93
2008-04-28 09:00,31.481,24.902,30.294,4.86
2008-04-28 10:00,31.492,24.915,30.266,4.81
2008-04-28 11:00,31.532,24.948,30.293,4.80
2008-04-28 12:00,31.591,24.995,30.340,4.80
2008-04-28 13:00,31.511,24.929,30.294,4.83
2008-04-28 14:00,31.602,25.006,30.330,4.78
2008-04-28 15:00,31.596,25.003,30.311,4.76
2008-04-28 16:00,31.569,24.980,30.298,4.77
2008-04-28 17:00,31.512,24.932,30.275,4.80
2008-04-28 18:00,31.513,24.936,30.247,4.77
2008-04-28 19:00,31.480,24.918,30.157,4.69
2008-04-28 20:00,31.401,24.852,30.112,4.72
2008-04-28 21:00,31.440,24.877,30.195,4.78
2008-04-28 22:00,31.499,24.913,30.337,4.89
2008-04-28 23:00,31.523,24.937,30.312,4.84
2008-04-29 00:00,31.584,24.988,30.346,4.81
2008-04-29 01:00,31.517,24.933,30.303,4.83
2008-04-29 02:00,31.536,24.950,30.303,4.81
2008-04-29 03:00,31.599,25.015,30.234,4.66
2008-04-29 04:00,31.454,24.874,30.318,4.92
2008-04-29 05:00,31.491,24.909,30.306,4.86
2008-04-29 06:00,31.284,24.757,30.038,4.76
2008-04-29 07:00,30.918,24.435,29.963,5.05
2008-04-29 08:00,31.422,24.856,30.234,4.85
2008-04-29 09:00,31.468,24.887,30.319,4.90
2008-04-29 10:00,31.291,24.726,30.320,5.09
2008-04-29 11:00,31.277,24.711,30.340,5.13
2008-04-29 12:00,31.362,24.789,30.333,5.03
2008-04-29 13:00,31.339,24.767,30.340,5.07
2008-04-29 14:00,31.588,25.017,30.143,4.56
2008-04-29 15:00,31.442,24.875,30.227,4.82
2008-04-29 16:00,31.225,24.662,30.353,5.20
2008-04-29 17:00,31.339,24.772,30.297,5.01
2008-04-29 18:00,31.364,24.801,30.249,4.93
2008-04-29 19:00,31.298,24.736,30.297,5.06
2008-04-29 20:00,31.083,24.541,30.297,5.29
2008-04-29 21:00,30.998,24.480,30.171,5.22
2008-04-29 22:00,31.071,24.536,30.245,5.24
2008-04-29 23:00,31.075,24.538,30.261,5.25
2008-04-30 00:00,31.044,24.505,30.301,5.33
2008-04-30 01:00,31.263,24.708,30.261,5.05
2008-04-30 02:00,31.154,24.612,30.243,5.14
2008-04-30 03:00,31.146,24.605,30.238,5.15
2008-04-30 04:00,31.192,24.658,30.153,4.99
2008-04-30 05:00,31.341,24.809,30.023,4.68
2008-04-30 06:00,31.315,24.789,30.004,4.68
2008-04-30 07:00,31.249,24.696,30.258,5.06
2008-04-30 08:00,31.108,24.568,30.262,5.22
2008-04-30 09:00,30.910,24.392,30.226,5.39
2008-04-30 10:00,30.932,24.409,30.253,5.40
2008-04-30 11:00,30.959,24.429,30.281,5.40
2008-04-30 12:00,30.994,24.457,30.314,5.40
2008-04-30 13:00,31.198,24.680,30.030,4.84
2008-04-30 14:00,31.301,24.763,30.110,4.82
2008-04-30 15:00,31.375,24.820,30.178,4.83
2008-04-30 16:00,31.411,24.885,29.925,4.48
2008-04-30 17:00,31.402,24.867,30.007,4.59
2008-04-30 18:00,31.457,24.907,30.083,4.63
2008-04-30 19:00,31.358,24.820,30.065,4.71
2008-04-30 20:00,31.390,24.856,30.010,4.61
2008-04-30 21:00,31.027,24.521,30.060,5.06
2008-04-30 22:00,31.035,24.485,30.382,5.44
2008-04-30 23:00,31.247,24.676,30.402,5.24
2008-05-01 00:00,31.336,24.758,30.390,5.13
2008-05-01 01:00,31.441,24.827,30.585,5.25
2008-05-01 02:00,31.471,24.875,30.427,5.03
2008-05-01 03:00,31.384,24.828,30.186,4.83
2008-05-01 04:00,31.378,24.858,29.901,4.49
2008-05-01 05:00,31.313,24.798,29.912,4.57
2008-05-01 06:00,31.432,24.909,29.883,4.41
2008-05-01 07:00,31.407,24.866,30.049,4.64
2008-05-01 08:00,31.369,24.788,30.386,5.09
2008-05-01 09:00,30.853,24.344,30.200,5.42
2008-05-01 10:00,31.240,24.651,30.535,5.41
2008-05-01 11:00,31.285,24.687,30.578,5.41
2008-05-01 12:00,31.322,24.714,30.624,5.43
2008-05-01 13:00,31.375,24.759,30.645,5.40
2008-05-01 14:00,31.426,24.806,30.642,5.34
2008-05-01 15:00,31.516,24.879,30.707,5.32
2008-05-01 16:00,31.601,24.950,30.753,5.29
2008-05-01 17:00,31.563,24.919,30.732,5.30
2008-05-01 18:00,31.503,24.869,30.694,5.32
2008-05-01 19:00,31.580,24.933,30.738,5.29
2008-05-01 20:00,31.431,24.828,30.517,5.18
2008-05-01 21:00,31.270,24.688,30.471,5.30
2008-05-01 22:00,31.337,24.723,30.655,5.45
2008-05-01 23:00,31.395,24.777,30.645,5.38
2008-05-02 00:00,31.466,24.839,30.670,5.33
2008-05-02 01:00,31.475,24.835,30.756,5.42
2008-05-02 02:00,31.486,24.844,30.764,5.42
2008-05-02 03:00,31.487,24.845,30.764,5.42
2008-05-02 04:00,31.600,24.945,30.788,5.33
2008-05-02 05:00,31.506,24.875,30.666,5.28
2008-05-02 06:00,31.462,24.839,30.643,5.30
2008-05-02 07:00,31.481,24.870,30.540,5.16
2008-05-02 08:00,31.531,24.928,30.437,4.98
2008-05-02 09:00,31.484,24.850,30.707,5.36
2008-05-02 10:00,31.353,24.734,30.681,5.46
2008-05-02 11:00,31.272,24.679,30.544,5.38
2008-05-02 12:00,31.467,24.836,30.699,5.36
2008-05-02 13:00,31.461,24.827,30.727,5.40
2008-05-02 14:00,31.483,24.844,30.742,5.40
2008-05-02 15:00,31.493,24.855,30.729,5.37
2008-05-02 16:00,31.557,24.910,30.755,5.34
2008-05-02 17:00,31.594,24.938,30.794,5.34
2008-05-02 18:00,31.449,24.823,30.673,5.35
2008-05-02 19:00,31.470,24.838,30.701,5.36
2008-05-02 20:00,31.527,24.886,30.731,5.34
2008-05-02 21:00,31.481,24.851,30.683,5.33
2008-05-02 22:00,31.344,24.739,30.588,5.36
2008-05-02 23:00,31.345,24.728,30.675,5.46
2008-05-03 00:00,31.396,24.772,30.692,5.43
2008-05-03 01:00,31.378,24.755,30.695,5.45
2008-05-03 02:00,31.458,24.820,30.752,5.44
2008-05-03 03:00,31.482,24.845,30.734,5.39
2008-05-03 04:00,31.450,24.816,30.733,5.42
2008-05-03 05:00,31.519,24.876,30.752,5.37
2008-05-03 06:00,31.466,24.833,30.711,5.38
2008-05-03 07:00,31.381,24.761,30.675,5.43
2008-05-03 08:00,31.470,24.839,30.696,5.36
2008-05-03 09:00,31.447,24.824,30.654,5.33
2008-05-03 10:00,31.380,24.762,30.661,5.41
2008-05-03 11:00,31.433,24.805,30.699,5.40
2008-05-03 12:00,31.294,24.692,30.599,5.43
2008-05-03 13:00,31.433,24.806,30.689,5.39
2008-05-03 14:00,31.469,24.836,30.713,5.38
2008-05-03 15:00,31.552,24.907,30.744,5.33
2008-05-03 16:00,31.580,24.933,30.741,5.29
2008-05-03 17:00,31.462,24.836,30.665,5.33
2008-05-03 18:00,31.413,24.796,30.635,5.34
2008-05-03 19:00,31.267,24.669,30.582,5.44
2008-05-03 20:00,31.415,24.796,30.645,5.35
2008-05-03 21:00,31.478,24.848,30.680,5.33
2008-05-03 22:00,31.309,24.705,30.601,5.41
2008-05-03 23:00,31.192,24.612,30.503,5.42
2008-05-04 00:00,31.253,24.661,30.552,5.41
2008-05-04 01:00,30.956,24.399,30.487,5.66
2008-05-04 02:00,31.322,24.709,30.661,5.47
2008-05-04 03:00,31.291,24.681,30.654,5.50
2008-05-04 04:00,31.291,24.677,30.686,5.54
2008-05-04 05:00,31.316,24.702,30.668,5.49
2008-05-04 06:00,31.375,24.753,30.690,5.45
2008-05-04 07:00,31.333,24.718,30.663,5.46
2008-05-04 08:00,31.391,24.773,30.649,5.38
2008-05-04 09:00,31.393,24.791,30.532,5.24
2008-05-04 10:00,31.394,24.804,30.438,5.12
2008-05-04 11:00,31.289,24.684,30.621,5.46
2008-05-04 12:00,31.277,24.676,30.597,5.44
2008-05-04 13:00,31.208,24.619,30.555,5.47
2008-05-04 14:00,31.254,24.654,30.606,5.48
2008-05-04 15:00,31.342,24.725,30.675,5.47
2008-05-04 16:00,31.321,24.708,30.658,5.47
2008-05-04 17:00,31.381,24.758,30.696,5.45
2008-05-04 18:00,31.339,24.728,30.632,5.42
2008-05-04 19:00,31.531,24.891,30.720,5.32
2008-05-04 20:00,31.398,24.780,30.642,5.37
2008-05-04 21:00,31.416,24.803,30.598,5.30
2008-05-04 22:00,31.319,24.727,30.502,5.28
2008-05-04 23:00,31.296,24.700,30.548,5.36
2008-05-05 00:00,31.232,24.645,30.526,5.41
2008-05-05 01:00,30.979,24.423,30.465,5.60
2008-05-05 02:00,31.028,24.460,30.515,5.61
2008-05-05 03:00,31.145,24.557,30.590,5.58
2008-05-05 04:00,31.186,24.590,30.622,5.57
2008-05-05 05:00,31.245,24.642,30.640,5.53
2008-05-05 06:00,31.247,24.642,30.646,5.53
2008-05-05 07:00,31.510,24.876,30.692,5.31
2008-05-05 08:00,31.250,24.652,30.597,5.47
2008-05-05 09:00,31.315,24.707,30.627,5.44
2008-05-05 10:00,31.413,24.792,30.656,5.37
2008-05-05 11:00,31.290,24.686,30.618,5.45
2008-05-05 12:00,31.374,24.758,30.643,5.39
2008-05-05 13:00,30.575,24.100,30.126,5.63
2008-05-05 14:00,30.991,24.431,30.483,5.61
2008-05-05 15:00,31.076,24.501,30.539,5.59
2008-05-05 16:00,31.164,24.575,30.586,5.55
2008-05-05 17:00,31.200,24.603,30.620,5.55
2008-05-05 18:00,31.256,24.649,30.657,5.54
2008-05-05 19:00,31.252,24.653,30.597,5.47
2008-05-05 20:00,31.299,24.693,30.618,5.45
2008-05-05 21:00,31.412,24.790,30.666,5.38
2008-05-05 22:00,31.505,24.867,30.717,5.34
2008-05-05 23:00,31.424,24.795,30.707,5.42
2008-05-06 00:00,31.509,24.860,30.796,5.44
2008-05-06 01:00,30.870,24.327,30.433,5.68
2008-05-06 02:00,31.173,24.569,30.685,5.66
2008-05-06 03:00,31.136,24.541,30.643,5.65
2008-05-06 04:00,31.217,24.610,30.682,5.61
2008-05-06 05:00,31.259,24.643,30.723,5.61
2008-05-06 06:00,31.201,24.595,30.683,5.63
2008-05-06 07:00,31.379,24.744,30.783,5.56
2008-05-06 08:00,31.551,24.897,30.805,5.40
2008-05-06 09:00,31.383,24.753,30.749,5.51
2008-05-06 10:00,31.450,24.807,30.793,5.49
2008-05-06 11:00,31.307,24.689,30.702,5.54
2008-05-06 12:00,31.407,24.779,30.716,5.45
2008-05-06 13:00,30.880,24.331,30.474,5.72
2008-05-06 14:00,31.033,24.457,30.573,5.68
2008-05-06 15:00,31.224,24.614,30.694,5.62
2008-05-06 16:00,31.182,24.579,30.676,5.64
2008-05-06 17:00,31.230,24.624,30.671,5.58
2008-05-06 18:00,31.197,24.596,30.648,5.59
2008-05-06 19:00,31.295,24.672,30.749,5.61
2008-05-06 20:00,31.328,24.703,30.742,5.56
2008-05-06 21:00,31.173,24.578,30.628,5.59
2008-05-06 22:00,31.467,24.828,30.755,5.43
2008-05-06 23:00,31.397,24.760,30.784,5.54
2008-05-07 00:00,31.283,24.664,30.729,5.60
2008-05-07 01:00,31.289,24.668,30.737,5.60
2008-05-07 02:00,30.819,24.282,30.423,5.73
2008-05-07 03:00,31.022,24.440,30.625,5.75
2008-05-07 04:00,31.081,24.480,30.726,5.81
2008-05-07 05:00,31.287,24.651,30.845,5.73
2008-05-07 06:00,31.238,24.614,30.793,5.72
2008-05-07 07:00,31.293,24.659,30.829,5.71
2008-05-07 08:00,31.477,24.834,30.779,5.45
2008-05-07 09:00,31.337,24.709,30.754,5.57
2008-05-07 10:00,31.272,24.653,30.733,5.61
2008-05-07 11:00,31.358,24.726,30.776,5.57
2008-05-07 12:00,31.201,24.599,30.660,5.60
2008-05-07 13:00,31.292,24.668,30.758,5.62
2008-05-07 14:00,31.172,24.560,30.741,5.73
2008-05-07 15:00,30.942,24.375,30.570,5.77
2008-05-07 16:00,31.120,24.522,30.675,5.71
2008-05-07 17:00,31.058,24.464,30.689,5.79
2008-05-07 18:00,31.236,24.616,30.764,5.69
2008-05-07 19:00,31.245,24.623,30.777,5.70
2008-05-07 20:00,31.301,24.669,30.809,5.67
2008-05-07 21:00,31.343,24.707,30.816,5.64
2008-05-07 22:00,31.169,24.565,30.696,5.68
2008-05-07 23:00,31.433,24.787,30.834,5.56
2008-05-08 00:00,31.338,24.704,30.801,5.62
2008-05-08 01:00,31.315,24.682,30.808,5.66
2008-05-08 02:00,31.157,24.552,30.709,5.71
2008-05-08 03:00,31.004,24.422,30.636,5.78
2008-05-08 04:00,30.989,24.406,30.645,5.81
2008-05-08 05:00,31.010,24.411,30.747,5.91
2008-05-08 06:00,31.245,24.601,30.930,5.88
2008-05-08 07:00,31.231,24.591,30.908,5.87
2008-05-08 08:00,31.183,24.561,30.812,5.80
2008-05-08 09:00,31.474,24.821,30.851,5.54
2008-05-08 10:00,31.440,24.797,30.798,5.51
2008-05-08 11:00,31.223,24.604,30.768,5.71
2008-05-08 12:00,31.324,24.695,30.774,5.61
2008-05-08 13:00,31.173,24.561,30.746,5.74
2008-05-08 14:00,31.241,24.620,30.770,5.69
2008-05-08 15:00,31.004,24.409,30.725,5.89
2008-05-08 16:00,30.927,24.338,30.730,5.98
2008-05-08 17:00,31.053,24.452,30.739,5.86
2008-05-08 18:00,31.102,24.498,30.735,5.80
2008-05-08 19:00,31.129,24.520,30.749,5.79
2008-05-08 20:00,31.271,24.634,30.864,5.77
2008-05-08 21:00,31.191,24.569,30.805,5.79
2008-05-08 22:00,31.304,24.680,30.755,5.61
2008-05-08 23:00,31.276,24.656,30.739,5.62
2008-05-09 00:00,31.314,24.684,30.786,5.63
2008-05-09 01:00,31.379,24.746,30.764,5.54
2008-05-09 02:00,31.224,24.596,30.830,5.78
2008-05-09 03:00,31.325,24.680,30.886,5.74
2008-05-09 04:00,31.101,24.499,30.714,5.78
2008-05-09 05:00,30.965,24.384,30.649,5.84
2008-05-09 06:00,31.083,24.479,30.739,5.82
2008-05-09 07:00,31.253,24.619,30.855,5.78
2008-05-09 08:00,31.261,24.627,30.848,5.76
2008-05-09 09:00,31.227,24.601,30.813,5.76
2008-05-09 10:00,31.304,24.668,30.837,5.70
2008-05-09 11:00,31.326,24.686,30.854,5.70
2008-05-09 12:00,31.395,24.746,30.875,5.65
2008-05-09 13:00,31.162,24.545,30.790,5.80
2008-05-09 14:00,31.357,24.710,30.884,5.70
2008-05-09 15:00,31.344,24.700,30.869,5.70
2008-05-09 16:00,30.559,24.058,30.322,5.89
2008-05-09 17:00,30.871,24.298,30.650,5.95
2008-05-09 18:00,31.009,24.407,30.772,5.95
2008-05-09 19:00,30.984,24.385,30.770,5.97
2008-05-09 20:00,31.101,24.486,30.808,5.89
2008-05-09 21:00,31.102,24.486,30.815,5.90
2008-05-09 22:00,31.058,24.447,30.806,5.93
2008-05-09 23:00,31.092,24.477,30.812,5.90
2008-05-10 00:00,31.135,24.514,30.829,5.88
2008-05-10 01:00,31.105,24.490,30.804,5.88
2008-05-10 02:00,31.140,24.522,30.809,5.85
2008-05-10 03:00,31.319,24.676,30.880,5.74
2008-05-10 04:00,31.201,24.570,30.868,5.85
2008-05-10 05:00,30.994,24.390,30.791,5.99
2008-05-10 06:00,30.852,24.272,30.709,6.04
2008-05-10 07:00,31.099,24.479,30.847,5.94
2008-05-10 08:00,31.113,24.486,30.881,5.97
2008-05-10 09:00,31.194,24.558,30.909,5.91
2008-05-10 10:00,31.312,24.661,30.941,5.82
2008-05-10 11:00,31.315,24.667,30.917,5.79
2008-05-10 12:00,31.258,24.614,30.916,5.85
2008-05-10 13:00,31.316,24.667,30.919,5.79
2008-05-10 14:00,30.936,24.351,30.695,5.93
2008-05-10 15:00,31.206,24.574,30.864,5.84
2008-05-10 16:00,31.290,24.654,30.851,5.74
2008-05-10 17:00,30.204,23.714,30.441,6.43
2008-05-10 18:00,30.715,24.150,30.678,6.15
2008-05-10 19:00,30.835,24.235,30.856,6.24
2008-05-10 20:00,30.774,24.185,30.816,6.26
2008-05-10 21:00,30.501,23.945,30.731,6.46
2008-05-10 22:00,30.538,23.977,30.744,6.43
2008-05-10 23:00,30.602,24.027,30.805,6.43
2008-05-11 00:00,30.978,24.361,30.891,6.12
2008-05-11 01:00,30.990,24.372,30.898,6.12
2008-05-11 02:00,31.022,24.396,30.933,6.13
2008-05-11 03:00,30.799,24.211,30.789,6.20
2008-05-11 04:00,31.120,24.484,30.946,6.04
2008-05-11 05:00,30.206,23.697,30.568,6.59
2008-05-11 06:00,30.224,23.714,30.565,6.56
2008-05-11 07:00,30.462,23.918,30.673,6.43
2008-05-11 08:00,30.647,24.070,30.799,6.38
2008-05-11 09:00,30.673,24.094,30.798,6.35
2008-05-11 10:00,30.535,23.976,30.734,6.42
2008-05-11 11:00,30.532,23.971,30.754,6.45
2008-05-11 12:00,30.778,24.187,30.820,6.26
2008-05-11 13:00,31.087,24.455,30.935,6.06
2008-05-11 14:00,30.911,24.303,30.863,6.16
2008-05-11 15:00,30.736,24.153,30.791,6.27
2008-05-11 16:00,31.054,24.425,30.936,6.09
2008-05-11 17:00,30.729,24.145,30.801,6.29
2008-05-11 18:00,30.396,23.872,30.566,6.37
2008-05-11 19:00,30.513,23.968,30.651,6.34
2008-05-11 20:00,30.595,24.039,30.683,6.29
2008-05-11 21:00,30.801,24.210,30.810,6.22
2008-05-11 22:00,30.876,24.271,30.868,6.21
2008-05-11 23:00,30.833,24.233,30.858,6.24
2008-05-12 00:00,30.873,24.269,30.861,6.20
2008-05-12 01:00,30.897,24.294,30.845,6.16
2008-05-12 02:00,31.194,24.549,30.971,5.99
2008-05-12 03:00,30.868,24.265,30.854,6.20
2008-05-12 04:00,30.967,24.349,30.902,6.15
2008-05-12 05:00,31.127,24.486,30.978,6.07
2008-05-12 06:00,30.870,24.260,30.903,6.26
2008-05-12 07:00,30.817,24.211,30.910,6.32
2008-05-12 08:00,30.633,24.061,30.771,6.36
2008-05-12 09:00,30.825,24.222,30.882,6.28
2008-05-12 10:00,30.843,24.237,30.890,6.27
2008-05-12 11:00,30.936,24.319,30.914,6.20
2008-05-12 12:00,31.023,24.396,30.941,6.14
2008-05-12 13:00,31.176,24.532,30.973,6.01
2008-05-12 14:00,31.139,24.501,30.945,6.01
2008-05-12 15:00,31.211,24.573,30.911,5.89
2008-05-12 16:00,30.825,24.228,30.838,6.23
2008-05-12 17:00,31.099,24.468,30.918,6.03
2008-05-12 18:00,31.069,24.437,30.943,6.09
2008-05-12 19:00,30.573,24.007,30.763,6.42
2008-05-12 20:00,30.685,24.102,30.822,6.36
2008-05-12 21:00,30.737,24.142,30.872,6.37
2008-05-12 22:00,30.974,24.349,30.947,6.20
2008-05-12 23:00,30.951,24.328,30.946,6.22
2008-05-13 00:00,31.009,24.376,30.984,6.20
2008-05-13 01:00,30.999,24.373,30.940,6.16
2008-05-13 02:00,31.082,24.450,30.936,6.07
2008-05-13 03:00,31.044,24.415,30.938,6.11
2008-05-13 04:00,31.150,24.505,30.995,6.06
2008-05-13 05:00,31.063,24.428,30.970,6.13
2008-05-13 06:00,31.077,24.440,30.979,6.12
2008-05-13 07:00,31.242,24.586,31.012,5.98
2008-05-13 08:00,30.820,24.205,30.967,6.39
2008-05-13 09:00,30.585,23.992,30.933,6.61
2008-05-13 10:00,30.712,24.107,30.952,6.49
2008-05-13 11:00,30.731,24.100,31.110,6.66
2008-05-13 12:00,30.942,24.282,31.201,6.54
2008-05-13 13:00,30.976,24.333,31.073,6.35
2008-05-13 14:00,30.838,24.211,31.036,6.45
2008-05-13 15:00,30.730,24.101,31.104,6.66
2008-05-13 16:00,30.759,24.134,31.063,6.57
2008-05-13 17:00,30.780,24.140,31.145,6.65
2008-05-13 18:00,30.804,24.175,31.063,6.53
2008-05-13 19:00,30.769,24.146,31.047,6.54
2008-05-13 20:00,30.713,24.089,31.080,6.65
2008-05-13 21:00,30.708,24.084,31.080,6.65
2008-05-13 22:00,30.748,24.129,31.023,6.54
2008-05-13 23:00,30.848,24.205,31.143,6.57
2008-05-14 00:00,30.855,24.195,31.246,6.69
2008-05-14 01:00,30.867,24.210,31.220,6.65
2008-05-14 02:00,30.909,24.249,31.216,6.59
2008-05-14 03:00,30.908,24.262,31.123,6.48
2008-05-14 04:00,31.036,24.380,31.126,6.35
2008-05-14 05:00,30.856,24.213,31.130,6.55
2008-05-14 06:00,30.921,24.259,31.225,6.59
2008-05-14 07:00,31.022,24.367,31.129,6.36
2008-05-14 08:00,30.856,24.199,31.225,6.66
2008-05-14 09:00,30.561,23.936,31.157,6.91
2008-05-14 10:00,30.657,24.024,31.162,6.81
2008-05-14 11:00,30.831,24.184,31.174,6.63
2008-05-14 12:00,30.884,24.236,31.152,6.55
2008-05-14 13:00,30.978,24.326,31.136,6.42
2008-05-14 14:00,31.001,24.346,31.138,6.40
2008-05-14 15:00,30.978,24.325,31.141,6.43
2008-05-14 16:00,31.027,24.372,31.129,6.36
2008-05-14 17:00,31.126,24.472,31.064,6.17
2008-05-14 18:00,31.048,24.401,31.064,6.26
2008-05-14 19:00,31.138,24.483,31.066,6.16
2008-05-14 20:00,31.100,24.452,31.039,6.17
2008-05-14 21:00,30.795,24.166,31.067,6.54
2008-05-14 22:00,30.901,24.257,31.122,6.49
2008-05-14 23:00,30.820,24.186,31.095,6.55
2008-05-15 00:00,30.879,24.237,31.115,6.51
2008-05-15 01:00,31.003,24.348,31.143,6.40
2008-05-15 02:00,31.037,24.374,31.170,6.40
2008-05-15 03:00,31.083,24.426,31.107,6.27
2008-05-15 04:00,31.004,24.355,31.101,6.35
2008-05-15 05:00,31.034,24.384,31.092,6.31
2008-05-15 06:00,31.094,24.438,31.099,6.25
2008-05-15 07:00,31.076,24.424,31.080,6.25
2008-05-15 08:00,31.148,24.495,31.046,6.13
2008-05-15 09:00,31.219,24.576,30.940,5.92
2008-05-15 10:00,30.891,24.251,31.091,6.46